Current weather by "City, St" or "zip code"  
 
Advertise Here

Current Conditions: Anniston Metro Airport, AL

Fair


30.0 F

Last Updated on Jan 18 2021, 3:53 am CST
Humidity: 79%
Wind Speed: W 5.8 mph
Barometer 30.03 in
Dewpoint: 24.1 F
Visibility: 10.00 mi
Precip: --
Heat Index: NA
Wind Chill: 24 F
Current conditions at:

Anniston Metro Airport, AL (KANB)

Lat: 33.59045 Lon: 85.84789

Local Radar Image active severe weather and emergency alerts image image weather storm and storm spotter reports image weather observation monitoring service image
Local
Radar
Active
Alerts
Storm Reports Obs
Monitoring

Sign-up For Email & Text Message Weather Alert Notification Services


Advertise Here

Observation History for Anniston Metro Airport, AL


Time Wind
(mph)
Vis
(mi)
Weather Precip (in) Temperature (F) Relative
Humidity
Wind
Chill
(F)
Heat
Index
(F)
Pressure
Air Dwpt altimeter
(in)
sea level
(mb)
Rmks
3:53 am CST W 5.8 10.00 Fair -- 30.0 24.1 79% 24 NA 30.03 1017.8
2:53 am CST W 4.6 10.00 Fair -- 27.0 24.1 89% 22 NA 30.02 1017.3
1:53 am CST W 5.8 10.00 Fair -- 28.0 24.1 85% 22 NA 30.01 1017.1
12:53 am CST W 4.6 10.00 Fair -- 29.0 25.0 85% 24 NA 30.00 1016.6
11:53 pm CST SW 5.8 10.00 Fair -- 32.0 26.1 79% 26 NA 29.99 1016.3
10:53 pm CST SW 5.8 10.00 Fair -- 34.0 27.0 76% 29 NA 29.98 1015.9
9:53 pm CST SW 3.5 10.00 Fair -- 34.0 27.0 76% NA NA 29.97 1015.5
8:53 pm CST N 0.0 10.00 Mostly Cloudy -- 37.0 28.0 70% NA NA 29.94 1014.7
7:53 pm CST N 0.0 10.00 Mostly Cloudy -- 41.0 30.0 65% NA NA 29.92 1014.1
6:53 pm CST N 0.0 10.00 Overcast -- 43.0 30.0 60% NA NA 29.92 1014.1
5:53 pm CST W 3.5 10.00 Mostly Cloudy -- 45.0 28.0 52% NA NA 29.91 1013.9
4:53 pm CST SW 8.1 10.00 Fair -- 49.0 27.0 43% 46 NA 29.90 1013.4
3:53 pm CST SW 11.5 10.00 A Few Clouds -- 52.0 28.0 40% 48 NA 29.89 1012.9
2:53 pm CST SW 10.4 10.00 Fair -- 53.0 28.0 38% 50 NA 29.89 1012.8
1:53 pm CST SW 12.7 G 18.4 10.00 Fair -- 53.0 28.9 40% 49 NA 29.90 1013.0
12:53 pm CST SW 13.8 10.00 Fair -- 52.0 28.9 41% 47 NA 29.92 1013.6
11:53 am CST SW 13.8 G 23.0 10.00 Fair -- 50.0 28.9 44% 45 NA 29.95 1014.9
10:53 am CST W 18.4 10.00 Fair -- 49.0 30.0 48% 43 NA 29.98 1015.9
9:53 am CST SW 9.2 10.00 Fair -- 45.0 30.0 56% 40 NA 30.02 1017.2
8:53 am CST SW 4.6 10.00 Overcast -- 38.0 30.0 73% 34 NA 30.02 1017.5
7:53 am CST N 0.0 10.00 Mostly Cloudy -- 35.0 30.0 82% NA NA 30.01 1017.3
6:53 am CST N 0.0 10.00 A Few Clouds -- 33.0 28.0 82% NA NA 29.99 1016.6
5:53 am CST N 0.0 10.00 Fair -- 32.0 28.0 85% NA NA 29.99 1016.4
4:53 am CST N 0.0 10.00 Fair -- 32.0 28.0 85% NA NA 29.96 1015.5

Regional Weather Observation


Talladega Municipal Airport, AL (KASN)

Fair
28.0 F

St Clair County Airport, AL (KPLR)

Fair
28.0 F

Anniston Metro Airport, AL (KANB)

Fair
30.0 F

Birmingham, Birmingham International Airport, AL (KBHM)

Fair
32.0 F

Merkel Field Sylacauga Municipal Airport, AL (KSCD)

Fair
27.0 F

Albertville, Albertville Municipal Airport, AL (K8A0)

Fair
32.0 F